Regional Weather Roundup
Issued by NWS

Home | Current Version | Previous Version | Text Only | Print | Product List | Glossary Off
Versions: 1 2 3 4 5 6 7 8 9 10 11 12 13 14 15 16 17 18 19 20 21 22 23 24 25 26 27 28 29 30 31 32 33 34 35 36 37 38 39 40 41 42 43 44 45 46 47 48 49 50

000
ASUS45 KSLC 300510
RWRUT

UTAH REGIONAL WEATHER ROUNDUP
NATIONAL WEATHER SERVICE SALT LAKE CITY UT
1100 PM MDT MON SEP 29 2014

UTZ001>011-023>025-300600-

NORTHERN UTAH

CITY           SKY/WX    TMP DP  RH WIND       PRES   REMARKS
HILL AFB       MOCLDY    52  46  79 S12       30.00F
LOGAN          NOT AVBL
OGDEN          CLOUDY    54  45  71 S9        29.99S
PROVO AIRPORT  CLOUDY    52  45  76 SE5       30.03S
SALT LAKE CITY LGT RAIN  53  47  79 VRB6      30.02R
VERNAL         CLOUDY    51  46  83 CALM      30.02R
WENDOVER       PTCLDY    55  39  54 NW8       30.00R
HEBER CITY     MOCLDY    45  41  87 E6        30.05R
WEST JORDAN    CLOUDY    52  48  87 S6        30.02S

$$

UTZ012>022-026-027-300600-

SOUTHERN UTAH

CITY           SKY/WX    TMP DP  RH WIND       PRES   REMARKS
BRYCE CANYON   CLOUDY    44  37  76 W3        30.15R
CEDAR CITY     CLOUDY    54  39  57 SW6       30.07R
MILFORD        MOCLDY    50  44  80 S3        30.04R
MOAB/CYNLANDS  MOCLDY    51  46  83 NE5       30.01R
PRICE          PTCLDY    49  44  83 E7        30.06R
ST GEORGE      MOCLDY    64  41  42 SE7       29.98S
KANAB            N/A     48  43  81 CALM      30.10R

$$

REGIONAL REPORTS     COLORADO/ARIZONA

CITY           SKY/WX    TMP DP  RH WIND       PRES   REMARKS
CRAIG, CO      CLOUDY    45  39  79 SW15      30.04R
GRAND JUNCTION PTCLDY    46  43  89 E8        30.06R
RIFLE          CLOUDY    47  44  90 SE5       30.08R
MONTROSE       MOCLDY    44  42  93 CALM      30.12R
CORTEZ         PTCLDY    47  42  83 NE6       30.10S
PAGE, AZ       NOT AVBL
GRAND CANYON   CLEAR     40  37  89 NE3       30.14R
KINGMAN        NOT AVBL
FLAGSTAFF      CLEAR     41  33  73 CALM      30.15S

$$

REGIONAL REPORTS    NEVADA/IDAHO/WYOMING

CITY           SKY/WX    TMP DP  RH WIND       PRES   REMARKS
LAS VEGAS, NV  CLEAR     75  38  26 SW8       29.89R
ELY            MOCLDY    47  40  76 CALM      30.11S
ELKO           CLOUDY    50  45  83 SW5       30.07R
POCATELLO, ID  RAIN      51  49  92 SW9       29.97S
BURLEY         MOCLDY    51  48  89 W9        29.97R
EVANSTON, WY   MOCLDY    40  37  89 SW8       30.07R WCI  34
ROCK SPRINGS   MOCLDY    45  39  79 W15       30.02R

$$


USA.gov is the U.S. government's official web portal to all federal, state and local government web resources and services.